DAL2670 KATL-KBWI

Flight info

Callsign DAL2670
Flight time N/A
Altitude 35000
Route JACCC2 KELLN Q58 PEETT DCT THHMP RAVNN8
Aircraft B739/M-SDE2E3FGHIRWXY/LB1

Departure

Time N/A
Airport Hartsfield Jackson Atlanta International Airport (KATL)

Arrival

Time 2026-05-08 03:20
Airport Baltimore/Washington International Thurgood Marshall Airport (KBWI)
Time Latitude Longitude Altitude Speed Heading
2026-05-08 02:48 37.27670 -77.34443 24966 ft 337 kts 359°
2026-05-08 02:48 37.29954 -77.33953 24973 ft 329 kts 348°
2026-05-08 02:48 37.32270 -77.33807 24970 ft 339 kts 346°
2026-05-08 02:49 37.34666 -77.33658 24971 ft 356 kts 348°
2026-05-08 02:49 37.37211 -77.33388 24824 ft 376 kts 352°
2026-05-08 02:49 37.39852 -77.32989 24585 ft 388 kts 354°
2026-05-08 02:49 37.42515 -77.32490 24353 ft 386 kts 355°
2026-05-08 02:50 37.45138 -77.31944 24116 ft 380 kts 356°
2026-05-08 02:50 37.47776 -77.31389 23879 ft 381 kts 355°
2026-05-08 02:50 37.50367 -77.30853 23649 ft 379 kts 356°
2026-05-08 02:50 37.52953 -77.30321 23413 ft 376 kts 355°
2026-05-08 02:51 37.55535 -77.29793 23176 ft 373 kts 356°
2026-05-08 02:51 37.58111 -77.29270 22985 ft 373 kts 356°
2026-05-08 02:51 37.60659 -77.28757 22962 ft 373 kts 356°
2026-05-08 02:51 37.63233 -77.28245 22962 ft 376 kts 356°
2026-05-08 02:52 37.65808 -77.27731 22960 ft 375 kts 356°
2026-05-08 02:52 37.68402 -77.27207 22961 ft 374 kts 356°
2026-05-08 02:52 37.70965 -77.26695 22962 ft 378 kts 356°
2026-05-08 02:52 37.73597 -77.26119 22958 ft 380 kts 358°
2026-05-08 02:53 37.76158 -77.25472 22953 ft 379 kts 359°
2026-05-08 02:53 37.78738 -77.24779 22960 ft 378 kts 359°
2026-05-08 02:53 37.81321 -77.24076 22954 ft 375 kts 359°
2026-05-08 02:53 37.83907 -77.23385 22954 ft 383 kts 359°
2026-05-08 02:54 37.86509 -77.22702 22952 ft 382 kts 359°
2026-05-08 02:54 37.89086 -77.22017 22955 ft 376 kts 359°
2026-05-08 02:54 37.91633 -77.21349 22923 ft 381 kts 359°
2026-05-08 02:54 37.94274 -77.20668 22705 ft 382 kts 359°
2026-05-08 02:55 37.96832 -77.20000 22477 ft 377 kts 359°
2026-05-08 02:55 38.01960 -77.18652 22015 ft 375 kts 359°
2026-05-08 02:55 38.04523 -77.17982 21792 ft 374 kts 359°
2026-05-08 02:56 38.07031 -77.17322 21491 ft 369 kts 359°
2026-05-08 02:56 38.09542 -77.16660 21059 ft 367 kts 359°
2026-05-08 02:56 38.12022 -77.16009 20601 ft 366 kts 360°
2026-05-08 02:56 38.14520 -77.15359 20135 ft 365 kts 360°
2026-05-08 02:57 38.17012 -77.14709 19663 ft 364 kts
2026-05-08 02:57 38.19481 -77.14062 19196 ft 363 kts
2026-05-08 02:57 38.21950 -77.13414 18732 ft 361 kts
2026-05-08 02:57 38.24403 -77.12770 18265 ft 359 kts
2026-05-08 02:58 38.26830 -77.12133 17817 ft 358 kts
2026-05-08 02:58 38.29274 -77.11491 17353 ft 356 kts
2026-05-08 02:58 38.31695 -77.10854 16897 ft 355 kts
2026-05-08 02:58 38.34093 -77.10204 16430 ft 355 kts
2026-05-08 02:59 38.36460 -77.09305 15958 ft 361 kts 13°
2026-05-08 02:59 38.38741 -77.07838 15520 ft 368 kts 24°
2026-05-08 02:59 38.40879 -77.06055 15055 ft 369 kts 28°
2026-05-08 02:59 38.42952 -77.04164 14605 ft 368 kts 30°
2026-05-08 03:00 38.45011 -77.02244 14152 ft 366 kts 30°
2026-05-08 03:00 38.47066 -77.00339 13689 ft 364 kts 30°
2026-05-08 03:00 38.49106 -76.98476 13226 ft 361 kts 30°
2026-05-08 03:00 38.51165 -76.96616 12780 ft 358 kts 30°
2026-05-08 03:01 38.53169 -76.94819 12389 ft 354 kts 29°
2026-05-08 03:01 38.55145 -76.92951 12045 ft 349 kts 34°
2026-05-08 03:01 38.56942 -76.90945 11898 ft 339 kts 37°
2026-05-08 03:01 38.58666 -76.88895 11526 ft 336 kts 38°
2026-05-08 03:02 38.60341 -76.86865 11102 ft 334 kts 39°
2026-05-08 03:02 38.62041 -76.84813 10678 ft 334 kts 38°
2026-05-08 03:02 38.63764 -76.82771 10253 ft 338 kts 38°
2026-05-08 03:02 38.65422 -76.80768 10010 ft 324 kts 40°
2026-05-08 03:03 38.66793 -76.78545 9885 ft 313 kts 59°
2026-05-08 03:03 38.67134 -76.75882 9551 ft 310 kts 108°
2026-05-08 03:03 38.65618 -76.74314 8889 ft 294 kts 160°
2026-05-08 03:03 38.63903 -76.72865 8321 ft 301 kts 141°
2026-05-08 03:04 38.62475 -76.70979 8036 ft 294 kts 125°
2026-05-08 03:04 38.61722 -76.68577 7783 ft 290 kts 94°
2026-05-08 03:04 38.61896 -76.66062 7543 ft 284 kts 69°
2026-05-08 03:04 38.62730 -76.63847 7293 ft 275 kts 51°
2026-05-08 03:05 38.63937 -76.61994 7046 ft 266 kts 37°
2026-05-08 03:05 38.65466 -76.60769 7010 ft 256 kts 14°
2026-05-08 03:05 38.67185 -76.60289 7016 ft 253 kts
2026-05-08 03:05 38.68930 -76.59943 7013 ft 254 kts
2026-05-08 03:06 38.70665 -76.59557 7014 ft 254 kts
2026-05-08 03:06 38.72419 -76.59137 7014 ft 254 kts
2026-05-08 03:06 38.74166 -76.58720 7012 ft 255 kts
2026-05-08 03:06 38.75923 -76.58308 7013 ft 254 kts
2026-05-08 03:07 38.77656 -76.57902 7013 ft 255 kts
2026-05-08 03:07 38.79390 -76.57461 6921 ft 252 kts
2026-05-08 03:07 38.81092 -76.56960 6658 ft 248 kts
2026-05-08 03:07 38.82755 -76.56467 6356 ft 246 kts
2026-05-08 03:08 38.84445 -76.56046 6053 ft 249 kts
2026-05-08 03:08 38.86154 -76.56131 6003 ft 242 kts 347°
2026-05-08 03:08 38.87791 -76.56603 6001 ft 243 kts 343°
2026-05-08 03:08 38.89436 -76.57122 5993 ft 241 kts 344°
2026-05-08 03:09 38.91048 -76.57584 5854 ft 234 kts 345°
2026-05-08 03:09 38.92690 -76.58021 5576 ft 243 kts 346°
2026-05-08 03:09 38.94329 -76.58449 5256 ft 242 kts 346°
2026-05-08 03:09 38.95963 -76.58960 5025 ft 236 kts 338°
2026-05-08 03:10 38.97333 -76.60018 4988 ft 228 kts 313°
2026-05-08 03:10 38.98219 -76.61703 4790 ft 231 kts 299°
2026-05-08 03:10 38.98970 -76.63511 4539 ft 229 kts 299°
2026-05-08 03:10 38.99737 -76.65296 4285 ft 227 kts 300°
2026-05-08 03:11 39.00507 -76.67030 4048 ft 221 kts 301°
2026-05-08 03:11 39.01259 -76.68706 4000 ft 206 kts 301°
2026-05-08 03:11 39.01946 -76.70239 4003 ft 190 kts 301°
2026-05-08 03:11 39.02588 -76.71667 4004 ft 184 kts 301°
2026-05-08 03:12 39.03234 -76.73101 4007 ft 184 kts 301°
2026-05-08 03:12 39.03877 -76.74528 4007 ft 184 kts 301°
2026-05-08 03:12 39.04517 -76.75948 4008 ft 184 kts 301°
2026-05-08 03:12 39.05162 -76.77380 4007 ft 185 kts 301°
2026-05-08 03:13 39.05804 -76.78805 4008 ft 184 kts 301°
2026-05-08 03:13 39.06456 -76.80254 3937 ft 186 kts 301°
2026-05-08 03:13 39.07099 -76.81680 3795 ft 185 kts 301°
2026-05-08 03:13 39.07686 -76.83138 3607 ft 185 kts 293°
2026-05-08 03:14 39.08111 -76.84705 3398 ft 185 kts 290°
2026-05-08 03:14 39.08499 -76.86272 3192 ft 184 kts 290°
2026-05-08 03:14 39.08906 -76.87843 2986 ft 185 kts 290°
2026-05-08 03:14 39.09456 -76.89329 2768 ft 183 kts 314°
2026-05-08 03:15 39.10572 -76.89974 2619 ft 181 kts 359°
2026-05-08 03:15 39.11797 -76.89648 2581 ft 178 kts 13°
2026-05-08 03:15 39.12941 -76.89019 2548 ft 182 kts 26°
2026-05-08 03:15 39.13981 -76.88055 2450 ft 185 kts 34°
2026-05-08 03:16 39.14984 -76.87016 2278 ft 185 kts 34°
2026-05-08 03:16 39.15974 -76.85997 2243 ft 183 kts 34°
2026-05-08 03:16 39.16978 -76.84967 2258 ft 184 kts 33°
2026-05-08 03:16 39.17976 -76.83936 2258 ft 183 kts 35°
2026-05-08 03:17 39.18735 -76.82609 2242 ft 190 kts 71°
2026-05-08 03:17 39.18600 -76.80955 2031 ft 190 kts 118°
2026-05-08 03:17 39.17922 -76.79574 1831 ft 178 kts 115°
2026-05-08 03:17 39.17802 -76.78084 1555 ft 163 kts 76°
2026-05-08 03:18 39.17948 -76.76692 1368 ft 154 kts 90°
2026-05-08 03:18 39.17821 -76.75341 1256 ft 151 kts 97°
2026-05-08 03:18 39.17744 -76.73994 1088 ft 148 kts 89°
2026-05-08 03:18 39.17700 -76.72678 837 ft 148 kts 96°
2026-05-08 03:19 39.17621 -76.71393 608 ft 141 kts 94°
2026-05-08 03:19 39.17541 -76.70133 409 ft 140 kts 95°
2026-05-08 03:19 39.17471 -76.68893 180 ft 139 kts 95°
2026-05-08 03:19 39.17404 -76.67733 118 ft 106 kts 93°
2026-05-08 03:20 39.17369 -76.67130 139 ft 39 kts 94°
2026-05-08 03:20 39.17350 -76.66783 141 ft 37 kts 94°
2026-05-08 03:20 39.17404 -76.66588 141 ft 18 kts 12°
2026-05-08 03:20 39.17480 -76.66476 143 ft 16 kts 47°
2026-05-08 03:21 39.17572 -76.66459 143 ft 14 kts 321°
2026-05-08 03:21 39.17662 -76.66446 142 ft 14 kts 34°
2026-05-08 03:21 39.17738 -76.66382 143 ft 12 kts 33°
2026-05-08 03:21 39.17808 -76.66322 142 ft 11 kts 33°
2026-05-08 03:22 39.17873 -76.66267 143 ft 10 kts 33°
2026-05-08 03:22 39.17937 -76.66212 143 ft 11 kts 33°
2026-05-08 03:22 39.18008 -76.66152 143 ft 12 kts 33°
2026-05-08 03:22 39.18089 -76.66103 143 ft 11 kts 360°
2026-05-08 03:23 39.18162 -76.66151 143 ft 12 kts 323°
2026-05-08 03:23 39.18236 -76.66222 142 ft 13 kts 324°
2026-05-08 03:23 39.18283 -76.66322 142 ft 14 kts 251°
2026-05-08 03:23 39.18230 -76.66429 143 ft 13 kts 235°
2026-05-08 03:24 39.18197 -76.66463 143 ft 1 kts 191°
2026-05-08 03:24 39.18171 -76.66464 143 ft 4 kts 181°
2026-05-08 03:24 39.18142 -76.66464 143 ft 4 kts 180°
2026-05-08 03:24 39.18137 -76.66464 143 ft 0 kts 179°